Weather History for Beverly, MA

Change the Weather History Date:

Thursday, May 3, 2012

  Actual Average Record
Temperature  
Mean Temperature 50 °F -  
Max Temperature 54 °F 61 °F 91 °F (2001)
Min Temperature 46 °F 41 °F 33 °F (2000)
Degree Days  
Heating Degree Days 16    
Moisture  
Dew Point 45 °F    
Average Humidity 88    
Maximum Humidity 96    
Minimum Humidity 77    
Precipitation  
Precipitation 0.02 in - - ()
Sea Level Pressure  
Sea Level Pressure 30.16 in    
Wind  
Wind Speed 5 mph (SE)    
Max Wind Speed 10 mph    
Max Gust Speed -    
Visibility 8 miles    
Events Rain    
Averages and records for this station are not official NWS values.
T = Trace of Precipitation, MM = Missing Value Source: NWS Daily Summary

Daily Weather History Graph

Daily Weather History Graph

Search for Another Location

Airport:

Trip Planner

Search our weather history database for the weather conditions in past years. The results will help you decide how hot, cold, wet, or windy it might be!

Date:

Astronomy

May. 03, 2012 Rise Set
Actual Time 5:35 AM EDT 7:46 PM EDT
Civil Twilight 5:04 AM EDT 8:17 PM EDT
Nautical Twilight 4:25 AM EDT 8:56 PM EDT
Astronomical Twilight 3:43 AM EDT 9:38 PM EDT
Moon 5:04 PM EDT 3:40 AM EDT
Length of Visible Light 15h 13m
Length of Day
14h 11m
Waxing Gibbous, 91% of the Moon is Illuminated
May 3
Waxing Gibbous
May 5
Full
May 12
Last Quarter
May 20
New
May 28
First Quarter

Hourly Weather History & Observations

Time (EDT) Temp. Windchill Dew Point Humidity Pressure Visibility Wind Dir Wind Speed Gust Speed Precip Events Conditions
12:53 AM 46.0 °F 44.8 °F 43.0 °F 89% 30.19 in 10.0 mi East 3.5 mph - N/A   Overcast
1:53 AM 46.0 °F 43.1 °F 44.1 °F 93% 30.17 in 10.0 mi East 5.8 mph - N/A   Overcast
2:53 AM 46.0 °F 43.1 °F 44.1 °F 93% 30.17 in 9.0 mi ESE 5.8 mph - N/A   Overcast
3:53 AM 46.0 °F 43.9 °F 43.0 °F 89% 30.15 in 10.0 mi ESE 4.6 mph - 0.00 in Rain Light Rain
4:53 AM 46.0 °F 44.8 °F 43.0 °F 89% 30.16 in 10.0 mi ESE 3.5 mph - 0.01 in   Overcast
5:53 AM 46.0 °F - 44.1 °F 93% 30.16 in 10.0 mi Calm Calm - N/A   Overcast
6:53 AM 46.0 °F - 44.1 °F 93% 30.19 in 4.0 mi Calm Calm - N/A   Overcast
7:53 AM 46.9 °F - 44.1 °F 90% 30.20 in 6.0 mi East 3.5 mph - 0.01 in   Overcast
8:53 AM 46.9 °F - 44.1 °F 90% 30.19 in 5.0 mi East 6.9 mph - N/A   Overcast
9:53 AM 46.9 °F - 45.0 °F 93% 30.19 in 9.0 mi ESE 6.9 mph - N/A   Overcast
10:53 AM 48.9 °F - 46.0 °F 90% 30.20 in 10.0 mi SE 5.8 mph - N/A   Overcast
11:53 AM 50.0 °F - 46.0 °F 86% 30.20 in 10.0 mi SE 4.6 mph - N/A   Overcast
12:53 PM 51.1 °F - 46.9 °F 86% 30.17 in 10.0 mi SE 9.2 mph - N/A   Overcast
1:48 PM 51.8 °F - 46.4 °F 82% 30.18 in 10.0 mi Variable 6.9 mph - N/A   Overcast
1:53 PM 52.0 °F - 46.9 °F 83% 30.17 in 10.0 mi SSE 6.9 mph - N/A   Overcast
2:00 PM 51.8 °F - 46.4 °F 82% 30.17 in 10.0 mi SE 8.1 mph - N/A   Overcast
2:10 PM 51.8 °F - 46.4 °F 82% 30.17 in 10.0 mi Variable 6.9 mph - N/A   Overcast
2:53 PM 53.1 °F - 46.0 °F 77% 30.16 in 10.0 mi SE 9.2 mph - N/A   Overcast
3:53 PM 52.0 °F - 46.0 °F 80% 30.15 in 10.0 mi SE 8.1 mph - N/A   Overcast
4:53 PM 48.9 °F - 45.0 °F 86% 30.14 in 10.0 mi SE 10.4 mph - N/A   Overcast
5:14 PM 48.2 °F - 44.6 °F 87% 30.15 in 10.0 mi SSE 6.9 mph - N/A   Overcast
5:53 PM 48.9 °F - 44.1 °F 83% 30.14 in 10.0 mi SSE 4.6 mph - N/A   Overcast
6:53 PM 48.0 °F - 44.1 °F 86% 30.13 in 10.0 mi SSE 4.6 mph - N/A   Overcast
7:35 PM 48.2 °F - 44.6 °F 87% 30.12 in 10.0 mi SE 3.5 mph - N/A   Overcast
7:53 PM 48.0 °F - 44.1 °F 86% 30.12 in 10.0 mi SSE 3.5 mph - N/A   Overcast
8:53 PM 48.0 °F - 46.0 °F 93% 30.13 in 4.0 mi Calm Calm - N/A   Overcast
9:12 PM 48.2 °F - 46.4 °F 93% 30.14 in 7.0 mi SE 3.5 mph - N/A   Overcast
9:53 PM 48.0 °F - 45.0 °F 89% 30.12 in 7.0 mi SSE 4.6 mph - N/A   Overcast
10:09 PM 48.2 °F - 44.6 °F 87% 30.13 in 2.0 mi SSE 4.6 mph - N/A   Overcast
10:13 PM 48.2 °F - 46.4 °F 93% 30.13 in 3.0 mi SSE 5.8 mph - N/A   Overcast
10:29 PM 48.2 °F - 46.4 °F 93% 30.14 in 5.0 mi SSE 3.5 mph - N/A   Overcast
10:53 PM 48.0 °F - 46.0 °F 93% 30.12 in 5.0 mi South 4.6 mph - N/A   Overcast
11:53 PM 48.0 °F - 46.9 °F 96% 30.11 in 7.0 mi South 3.5 mph - N/A   Overcast